Theta_e
315 315 315 315 315 315 314 314 313 313 314 313 313 312 312 311 311 311 311 311 311 310 309 308 307 306 302 291 290 299 303 301 299 297 293 291 288 287 283 285 285 283 285 286 287 287 286
316 315 315 315 314 314 314 314 313 313 313 313 312 312 311 311 311 311 310 310 309 308 307 306 305 306 297 285 297 300 299 296 295 294 292 292 289 290 286 285 284 285 285 285 286 286 287
315 315 314 314 314 313 313 313 312 312 312 312 312 311 310 310 310 310 310 309 308 307 305 304 306 302 294 291 301 302 297 294 296 295 290 293 293 289 288 284 288 286 281 284 285 285 284
314 314 314 314 314 313 313 313 312 312 312 311 312 311 310 310 310 310 309 307 305 305 304 303 307 301 290 301 303 299 296 294 296 295 293 294 294 290 287 289 285 282 282 276 283 284 285
314 314 314 314 315 314 313 313 313 312 312 311 311 310 309 309 308 308 307 305 303 303 303 306 300 296 286 296 292 294 295 291 293 293 294 293 292 287 287 281 278 280 274 275 278 284 283
313 314 313 313 314 314 314 313 312 312 312 311 310 309 309 308 307 307 304 302 300 299 299 297 295 289 290 287 292 293 295 293 289 289 288 287 287 283 282 278 271 274 274 276 275 280 282
313 312 313 313 313 313 314 313 313 313 312 311 310 309 308 307 306 303 299 297 292 290 292 287 286 286 288 292 293 290 292 290 289 286 281 284 279 276 278 280 279 277 276 274 277 281 279
313 312 312 311 312 312 312 312 312 312 312 311 309 308 307 305 304 300 297 290 289 291 285 289 289 288 290 291 284 288 292 285 283 279 282 280 276 280 281 280 278 277 275 275 278 280 279
312 312 312 312 312 312 311 311 312 312 311 310 309 307 305 304 301 297 293 289 295 294 286 284 287 286 287 289 283 284 288 285 282 279 279 276 279 282 280 279 276 276 275 275 275 278 280
310 312 312 312 311 311 311 311 311 312 312 311 309 307 304 302 294 294 290 293 296 295 281 279 282 285 287 287 281 288 289 285 282 278 279 278 281 279 278 277 278 273 280 278 276 275 271
311 310 311 311 311 310 311 311 311 312 312 311 309 306 302 299 293 290 290 295 295 291 274 280 282 290 288 282 282 283 289 285 279 278 278 276 277 277 276 278 280 276 280 278 277 275 275
310 310 310 311 311 310 310 311 311 312 312 311 309 305 300 294 293 291 294 295 292 278 272 277 282 281 281 282 281 283 283 286 284 279 280 278 282 280 280 282 281 282 279 278 277 275 269
309 309 309 309 311 310 311 311 312 312 312 310 308 304 297 294 288 293 295 289 280 275 279 276 277 280 279 277 278 279 278 277 275 271 272 276 276 281 282 278 281 279 276 270 268 268 269
309 309 309 309 310 310 312 312 312 312 311 310 304 298 295 294 294 292 290 283 274 274 275 280 279 278 274 277 276 277 276 275 278 276 272 270 270 277 280 276 274 273 275 271 265 267 271
309 309 308 309 309 310 311 312 312 311 311 308 299 296 296 295 292 290 287 277 274 275 278 277 278 273 274 276 276 275 275 274 276 277 270 270 271 279 278 278 275 272 274 275 273 273 272
308 308 308 308 308 309 310 312 311 311 310 305 294 292 293 294 293 292 284 275 276 280 280 279 272 274 271 274 273 274 273 276 276 279 279 275 269 277 278 277 276 271 273 271 276 268 267
308 308 308 307 306 308 310 311 311 311 309 301 293 290 294 294 295 287 278 275 278 282 281 277 274 273 274 273 274 272 273 277 278 278 279 277 273 274 277 270 268 269 267 267 268 272 270
307 307 308 306 306 307 309 310 311 310 306 295 291 288 293 294 286 283 279 277 281 280 282 280 279 277 275 275 273 272 272 275 280 279 274 276 273 269 271 273 274 271 267 266 264 267 271
308 307 307 306 306 306 308 309 310 310 302 295 288 287 294 293 281 281 280 278 280 279 279 278 277 279 278 275 271 273 274 279 280 278 276 277 273 267 269 271 272 268 268 267 267 266 264
308 307 307 306 305 305 307 308 309 310 306 295 291 286 290 287 284 280 277 277 276 281 279 280 279 279 277 274 276 272 273 277 279 278 282 277 273 269 265 267 267 264 266 266 267 264 263
307 307 306 305 305 305 307 308 309 309 306 297 292 287 285 284 284 280 278 276 276 276 279 280 277 277 275 271 272 271 274 276 277 278 276 273 269 270 271 269 267 265 264 263 262 263 262
307 307 305 305 304 305 307 308 309 309 303 295 290 286 282 284 281 280 278 277 276 277 277 276 275 277 277 273 274 271 274 275 273 276 274 271 269 268 266 269 269 263 264 265 263 262 263
306 305 304 304 304 306 307 308 308 309 303 295 291 290 287 286 281 279 281 279 279 280 280 280 279 277 276 278 280 280 280 279 278 274 273 269 268 267 266 266 267 265 262 263 262 262 261
305 304 303 304 304 306 307 308 308 308 307 302 295 291 283 282 281 282 282 282 280 280 277 280 280 277 280 283 283 280 277 274 273 275 275 270 267 268 266 264 260 262 267 265 262 262 263
304 305 304 305 306 307 307 308 308 308 306 301 297 291 285 281 284 284 281 281 282 281 277 277 280 282 283 281 275 272 271 271 272 273 269 267 269 267 264 264 260 262 263 262 261 260 264
305 305 305 306 306 307 308 308 308 308 305 301 298 297 288 283 284 285 282 281 278 277 276 278 282 283 282 277 273 267 266 267 267 269 272 270 268 269 264 262 260 262 264 265 264 261 264
305 306 306 306 307 308 308 308 308 307 305 302 299 297 291 283 286 284 281 281 280 279 276 278 279 279 279 275 271 269 268 270 266 265 266 268 267 265 265 264 263 263 265 265 259 260 264
305 306 307 307 307 308 308 308 308 306 305 301 298 299 292 285 288 285 286 281 281 281 276 279 278 276 276 271 270 271 269 270 267 264 263 265 264 265 260 260 260 265 265 261 262 265 265
307 307 307 307 307 308 308 307 307 306 304 301 294 298 297 288 287 286 286 287 286 286 282 282 279 277 279 274 272 271 270 267 267 265 264 262 262 263 261 260 263 265 264 265 265 264 266
Wind_Speed
19 19 19 18 18 19 19 19 20 21 22 23 23 23 23 23 21 19 18 17 15 14 13 11 7 1 1 2 3 2 5 8 6 5 10 13 13 14 18 14 15 18 18 21 18 18 19
19 19 19 19 20 20 22 20 21 21 22 23 23 24 23 22 20 19 18 17 15 13 13 6 1 9 2 5 2 3 7 10 11 12 14 13 14 16 21 19 19 16 20 21 20 22 20
20 20 19 20 21 21 21 20 20 21 22 24 24 23 23 21 19 19 19 17 15 15 4 3 6 4 3 5 1 5 7 12 9 9 12 13 14 15 11 17 19 20 23 21 21 20 19
19 19 18 18 19 21 22 22 22 24 24 24 25 24 21 19 19 19 18 17 16 5 3 1 9 3 4 2 5 7 15 15 7 10 12 15 14 16 18 15 20 20 22 21 21 17 19
19 19 20 21 22 21 22 23 24 25 27 27 25 24 20 18 18 18 18 19 7 5 7 11 5 3 4 1 4 17 13 7 15 15 12 10 6 11 10 14 17 17 21 25 28 21 21
18 20 22 21 23 23 23 23 24 26 28 29 27 23 20 18 18 14 18 8 9 5 6 5 4 5 1 10 11 18 5 9 12 12 10 2 6 8 11 12 17 20 20 22 22 19 15
20 20 21 21 23 23 24 25 26 26 28 28 27 22 19 19 17 9 8 1 1 3 6 4 4 4 7 12 16 6 6 16 5 11 9 6 8 13 16 18 23 23 25 26 24 23 21
21 21 22 22 22 24 25 25 26 27 27 28 26 21 21 19 7 7 4 6 3 4 1 1 4 5 5 9 9 11 12 12 12 13 9 7 13 10 9 12 16 21 24 26 23 22 17
20 20 20 21 22 22 24 25 25 26 27 27 25 22 22 19 4 5 6 5 7 6 2 3 1 3 8 14 7 12 13 18 12 11 14 13 12 11 10 13 14 17 20 21 23 16 18
20 20 20 21 21 22 23 25 25 26 25 24 25 20 21 17 0 4 3 10 0 4 3 10 4 3 9 16 1 15 15 6 7 12 15 7 2 14 17 16 14 18 17 20 20 13 11
20 20 20 21 21 22 23 25 26 26 25 24 25 18 17 11 4 3 8 4 4 4 2 12 5 4 16 8 12 4 17 8 12 18 6 8 20 14 13 7 9 12 12 15 15 15 16
19 20 20 21 21 23 23 25 26 25 25 25 24 15 11 2 1 3 3 2 3 4 4 4 6 13 17 9 11 8 8 7 8 14 9 16 8 4 9 11 19 17 12 12 10 9 10
19 19 20 21 22 23 23 25 25 26 26 27 25 11 5 3 8 8 3 3 3 5 5 7 9 14 15 14 8 12 12 12 12 13 20 18 4 5 6 18 9 12 7 4 7 8 9
19 19 19 21 21 22 24 23 25 27 27 26 22 6 3 6 7 2 3 4 9 2 5 7 9 14 5 12 9 14 11 10 8 13 15 12 6 10 9 9 12 18 7 6 4 5 5
19 19 20 20 21 23 25 24 24 25 26 25 10 2 3 11 6 3 3 7 3 4 5 10 11 5 4 6 9 10 8 5 5 10 10 9 7 12 7 5 9 11 6 9 8 4 5
18 19 19 20 22 22 24 25 23 24 24 21 2 2 6 16 7 2 5 4 2 3 6 4 5 3 7 12 11 12 7 2 7 12 10 6 12 4 8 4 6 4 8 2 5 4 5
18 19 19 20 20 21 23 24 24 23 24 13 2 1 7 13 3 6 5 2 4 4 4 3 4 5 6 8 13 6 6 9 2 14 11 9 5 13 7 8 12 9 7 5 6 6 5
18 17 17 18 18 21 23 24 24 24 22 7 3 0 6 9 6 3 3 4 5 4 2 4 4 6 6 9 9 6 6 6 12 15 10 3 6 13 9 4 5 11 11 5 5 6 5
16 16 16 16 17 19 20 21 22 21 13 4 2 3 2 5 5 6 3 3 4 3 4 3 4 5 3 6 7 8 7 7 9 13 9 9 1 10 2 7 4 7 17 13 8 4 6
16 16 15 15 16 17 19 20 20 18 11 2 2 4 2 4 2 1 4 3 4 3 5 5 7 5 5 9 7 7 9 7 17 8 11 3 4 4 10 7 4 8 15 18 5 4 4
15 16 14 14 14 15 17 18 19 17 8 1 3 1 2 6 2 2 2 2 4 4 3 3 4 8 3 6 11 6 6 13 11 2 4 4 5 9 11 6 6 10 12 15 15 11 6
16 15 15 15 14 15 16 17 17 15 4 1 1 1 1 4 3 3 2 5 3 4 4 5 7 6 7 10 11 19 16 13 10 5 4 3 5 4 3 5 7 3 15 9 9 11 7
16 15 15 14 14 16 15 14 14 13 1 1 1 1 1 3 3 2 2 3 5 6 6 12 10 12 15 16 12 16 17 16 14 8 4 3 5 5 3 6 4 9 10 8 5 9 7
16 16 14 14 14 15 16 14 13 11 5 2 3 3 3 5 4 6 4 6 11 8 12 11 12 12 5 7 16 7 4 4 5 8 6 5 3 2 4 2 4 4 4 4 5 6 9
16 15 14 15 16 16 16 15 14 11 3 2 3 3 3 5 6 9 4 9 9 9 9 9 9 7 5 10 5 6 3 3 3 5 5 3 3 3 4 3 2 3 4 4 3 2 10
17 17 15 17 17 16 16 16 14 9 4 3 3 3 3 3 5 2 7 5 5 4 5 5 5 3 2 3 2 4 5 3 2 3 4 4 1 3 1 5 4 4 4 3 3 4 11
18 18 16 18 18 17 16 15 14 9 9 3 3 6 2 4 3 6 5 4 4 3 5 7 2 3 1 2 4 4 5 2 4 3 3 3 2 3 3 4 3 5 6 2 4 5 11
20 19 18 18 19 18 18 15 15 12 9 3 2 8 5 4 4 8 7 6 4 4 5 2 4 3 2 4 3 2 4 1 4 1 2 3 3 3 1 4 5 9 4 3 5 5 9
20 19 19 19 19 19 18 17 13 11 9 4 3 2 5 1 2 0 1 2 6 7 5 4 3 2 2 3 3 2 5 3 3 7 3 3 3 2 2 4 3 4 8 3 3 7 9
Wind_Direction
25 20 18 12 11 9 5 2 358 354 354 350 347 343 341 340 338 337 335 336 332 328 328 317 306 282 157 268 260 314 344 351 321 305 290 288 283 276 276 270 276 260 265 273 281 294 290
26 23 19 18 16 11 8 7 0 356 354 349 347 344 343 338 339 337 336 335 333 334 325 313 266 131 178 304 113 250 348 331 310 294 282 268 264 276 276 274 259 265 278 278 282 283 281
23 25 22 20 18 12 10 8 2 357 353 349 347 346 342 339 339 337 334 333 335 331 337 327 157 140 222 287 252 310 322 320 289 287 287 277 268 265 261 262 254 257 271 276 270 280 275
24 21 14 10 14 11 10 8 3 0 355 351 347 345 343 339 341 338 333 332 332 347 346 178 152 176 273 242 304 280 313 313 277 275 267 278 271 260 254 253 261 256 260 270 274 274 279
15 8 8 9 5 8 5 5 2 360 357 355 349 346 342 342 344 340 332 339 10 46 100 128 136 218 287 323 300 321 316 298 304 286 286 264 235 243 234 240 256 249 259 265 274 271 283
11 11 10 7 3 2 2 1 0 358 356 356 350 347 342 344 344 345 331 12 48 90 80 115 104 230 125 324 322 315 293 290 297 302 299 237 238 251 244 245 249 259 256 261 269 268 275
11 9 7 6 0 359 1 359 357 354 353 355 350 346 344 349 347 17 341 7 55 129 47 30 340 290 319 323 318 304 335 316 277 287 297 325 266 263 275 262 260 269 273 272 266 272 272
10 11 7 5 1 0 358 358 357 355 353 354 351 346 346 351 17 34 33 69 33 326 140 128 290 276 291 321 304 343 339 333 321 312 320 281 274 291 291 279 271 262 261 263 271 271 273
6 7 4 3 359 358 356 356 356 353 352 354 354 349 348 350 120 51 74 63 308 190 224 97 237 302 339 326 332 329 352 320 306 302 330 298 283 306 309 288 260 247 252 266 268 292 281
5 1 4 1 359 357 354 355 355 352 348 351 351 348 350 345 169 358 77 344 150 195 177 7 353 63 346 319 216 332 348 324 314 314 330 296 281 300 302 282 271 262 257 255 258 259 255
357 2 2 359 355 353 353 351 352 350 346 347 347 345 354 18 333 20 324 328 147 232 292 343 340 321 345 20 312 348 346 320 308 314 286 304 311 314 304 270 275 260 283 257 255 243 255
355 356 358 355 355 352 351 347 346 347 347 345 346 341 354 38 9 51 331 154 224 230 350 352 337 343 344 335 338 307 335 349 286 306 281 319 307 269 326 299 286 272 271 238 252 234 236
351 352 352 354 353 349 352 351 346 344 348 346 347 347 18 0 334 344 162 207 235 41 14 334 333 334 331 326 328 349 339 358 17 345 341 324 341 335 357 320 344 360 239 250 182 201 245
346 348 351 350 352 351 348 348 348 344 347 347 346 10 18 40 334 162 190 242 53 32 295 328 317 322 318 356 334 334 336 359 30 354 317 341 315 14 7 2 315 296 250 270 260 228 269
344 345 348 349 350 350 346 347 347 343 344 349 344 345 350 354 2 196 274 49 25 327 313 318 318 317 332 335 335 335 344 303 331 3 353 321 287 334 71 12 360 330 313 342 285 247 259
342 343 345 350 350 345 345 345 346 345 346 352 4 329 12 341 347 4 56 96 249 259 318 310 310 342 317 333 340 343 320 41 332 347 357 305 291 314 16 17 3 39 340 327 231 275 245
339 341 344 349 347 340 342 345 347 349 350 348 17 7 357 341 348 42 56 7 279 275 286 269 293 291 275 314 325 311 291 298 26 343 332 291 284 308 329 27 14 13 21 344 284 278 303
338 338 340 344 343 336 340 345 349 352 354 42 358 111 350 329 38 52 23 316 312 283 259 282 276 265 270 317 301 284 276 292 343 341 330 9 290 306 339 120 89 75 4 343 296 13 347
331 335 338 338 337 333 335 343 348 354 22 330 20 300 355 316 37 19 329 262 248 279 270 275 266 246 326 299 301 264 275 289 339 337 339 338 345 316 311 180 126 21 5 342 252 252 36
331 333 333 336 336 332 332 339 345 353 13 66 356 343 57 63 71 67 335 238 286 252 266 244 271 266 277 282 234 274 289 306 327 315 338 315 275 305 300 330 353 356 6 5 343 39 5
329 328 328 329 330 327 328 335 340 347 360 298 10 32 29 323 17 295 239 274 287 311 237 252 248 234 277 289 298 248 254 306 305 323 21 21 276 320 300 158 103 39 14 17 33 16 37
324 326 327 324 325 322 325 330 335 344 355 67 298 274 175 282 246 276 173 218 271 274 235 250 236 278 259 270 258 291 300 306 283 313 353 1 300 333 283 226 238 42 26 9 23 12 35
321 322 319 318 316 311 318 321 327 334 135 95 129 98 224 202 195 232 217 252 267 304 262 241 261 285 281 280 280 286 280 273 261 271 299 316 322 322 332 341 225 236 10 12 64 34 337
316 313 311 309 306 307 310 315 319 321 336 202 172 144 199 266 219 260 256 263 278 276 263 273 275 266 260 318 296 262 231 229 226 232 238 288 296 289 300 274 266 65 31 24 103 38 14
307 311 307 300 298 299 302 305 309 309 179 178 154 165 209 262 251 277 243 261 265 272 273 264 263 241 322 310 287 300 220 216 183 166 175 191 266 287 297 306 39 157 29 339 340 57 5
298 301 295 293 293 295 296 298 299 298 182 169 191 162 164 271 224 268 282 226 270 261 273 248 258 273 247 259 265 268 301 342 273 192 176 168 107 249 235 292 286 76 355 334 211 222 7
287 292 289 288 289 288 290 289 290 256 225 204 221 182 167 227 236 156 220 252 176 222 261 282 273 285 191 242 253 247 271 219 262 255 202 250 323 279 260 269 110 12 320 161 241 20 341
281 286 287 283 285 287 286 281 286 229 225 208 235 191 192 228 251 191 185 179 200 203 255 307 282 186 232 237 245 261 248 188 238 101 234 278 254 223 171 248 236 3 159 277 7 334 332
274 277 283 283 281 284 284 278 254 229 223 232 250 202 224 210 321 78 196 294 238 262 249 213 267 286 274 243 219 272 253 196 234 265 156 217 300 346 313 21 86 51 87 59 280 319 333